TAP1477 LPPT-GGOV

Flight info

Callsign TAP1477
Flight time 4h 13m
Altitude 31000
Route BEVOP DCT TAKAV DCT ESS UR724 ADM UR975 ARDAR UR620 SISNU UR865 KOMAB KOMAB1V
Aircraft A21N/M-SDE2E3FGHIRWXY/LB1

Departure

Time 2026-04-22 19:47
Airport Lisbon Humberto Delgado Airport (LPPT)

Arrival

Time 2026-04-23 00:01
Airport Osvaldo Vieira International Airport (GGOV)
Time Latitude Longitude Altitude Speed Heading
2026-04-22 19:01 38.76787 -9.13905 381 ft 0 kts 258°
2026-04-22 19:20 38.76788 -9.13901 381 ft 2 kts 258°
2026-04-22 19:20 38.76791 -9.13882 381 ft 2 kts 258°
2026-04-22 19:21 38.76794 -9.13863 381 ft 2 kts 258°
2026-04-22 19:21 38.76796 -9.13851 381 ft 1 kts 258°
2026-04-22 19:21 38.76803 -9.13834 381 ft 2 kts 220°
2026-04-22 19:21 38.76817 -9.13825 381 ft 2 kts 186°
2026-04-22 19:22 38.76825 -9.13825 381 ft 1 kts 167°
2026-04-22 19:22 38.76831 -9.13828 381 ft 0 kts 167°
2026-04-22 19:27 38.76808 -9.13821 381 ft 7 kts 168°
2026-04-22 19:27 38.76741 -9.13804 381 ft 10 kts 168°
2026-04-22 19:27 38.76671 -9.13786 381 ft 11 kts 170°
2026-04-22 19:28 38.76618 -9.13724 381 ft 11 kts 95°
2026-04-22 19:28 38.76633 -9.13622 381 ft 12 kts 78°
2026-04-22 19:28 38.76651 -9.13511 381 ft 12 kts 78°
2026-04-22 19:28 38.76696 -9.13423 381 ft 12 kts 36°
2026-04-22 19:29 38.76767 -9.13366 381 ft 11 kts 15°
2026-04-22 19:29 38.76847 -9.13380 381 ft 11 kts 346°
2026-04-22 19:29 38.76928 -9.13403 381 ft 11 kts 348°
2026-04-22 19:29 38.77005 -9.13424 381 ft 11 kts 348°
2026-04-22 19:30 38.77054 -9.13437 381 ft 10 kts 348°
2026-04-22 19:30 38.77155 -9.13462 381 ft 11 kts 348°
2026-04-22 19:30 38.77241 -9.13484 381 ft 13 kts 348°
2026-04-22 19:30 38.77339 -9.13511 381 ft 15 kts 347°
2026-04-22 19:31 38.77443 -9.13540 381 ft 15 kts 347°
2026-04-22 19:31 38.77544 -9.13569 381 ft 14 kts 347°
2026-04-22 19:31 38.77638 -9.13593 381 ft 13 kts 349°
2026-04-22 19:31 38.77725 -9.13581 381 ft 12 kts 22°
2026-04-22 19:32 38.77800 -9.13540 381 ft 11 kts 22°
2026-04-22 19:32 38.77875 -9.13499 381 ft 12 kts 24°
2026-04-22 19:32 38.77956 -9.13455 381 ft 13 kts 24°
2026-04-22 19:32 38.78048 -9.13423 381 ft 14 kts 359°
2026-04-22 19:33 38.78131 -9.13444 381 ft 2 kts 347°
2026-04-22 19:35 38.78148 -9.13449 381 ft 5 kts 348°
2026-04-22 19:35 38.78205 -9.13463 381 ft 11 kts 347°
2026-04-22 19:35 38.78296 -9.13488 381 ft 15 kts 348°
2026-04-22 19:35 38.78410 -9.13521 381 ft 18 kts 347°
2026-04-22 19:36 38.78534 -9.13555 381 ft 17 kts 348°
2026-04-22 19:36 38.78648 -9.13562 381 ft 15 kts 15°
2026-04-22 19:36 38.78744 -9.13512 381 ft 14 kts 23°
2026-04-22 19:36 38.78835 -9.13464 381 ft 13 kts 22°
2026-04-22 19:37 38.78920 -9.13419 381 ft 12 kts 22°
2026-04-22 19:37 38.79002 -9.13376 381 ft 12 kts 23°
2026-04-22 19:37 38.79081 -9.13332 381 ft 12 kts 23°
2026-04-22 19:37 38.79164 -9.13288 381 ft 13 kts 22°
2026-04-22 19:38 38.79253 -9.13241 381 ft 14 kts 22°
2026-04-22 19:38 38.79347 -9.13190 381 ft 14 kts 24°
2026-04-22 19:38 38.79441 -9.13138 381 ft 14 kts 23°
2026-04-22 19:38 38.79535 -9.13087 381 ft 14 kts 22°
2026-04-22 19:39 38.79631 -9.13038 381 ft 14 kts 22°
2026-04-22 19:39 38.79727 -9.12988 381 ft 14 kts 22°
2026-04-22 19:39 38.79768 -9.12898 381 ft 11 kts 102°
2026-04-22 19:39 38.79758 -9.12861 381 ft 0 kts 112°
2026-04-22 19:43 38.79755 -9.12852 381 ft 4 kts 112°
2026-04-22 19:44 38.79741 -9.12808 381 ft 5 kts 114°
2026-04-22 19:44 38.79715 -9.12768 381 ft 6 kts 146°
2026-04-22 19:44 38.79678 -9.12761 381 ft 5 kts 199°
2026-04-22 19:44 38.79669 -9.12766 381 ft 0 kts 203°
2026-04-22 19:45 38.79664 -9.12769 381 ft 1 kts 203°
2026-04-22 19:45 38.79655 -9.12774 381 ft 1 kts 203°
2026-04-22 19:45 38.79642 -9.12781 381 ft 2 kts 203°
2026-04-22 19:45 38.79634 -9.12785 381 ft 0 kts 203°
2026-04-22 19:46 38.79631 -9.12787 381 ft 0 kts 203°
2026-04-22 19:46 38.79621 -9.12793 381 ft 2 kts 203°
2026-04-22 19:46 38.79594 -9.12808 381 ft 16 kts 204°
2026-04-22 19:46 38.79240 -9.12997 381 ft 90 kts 203°
2026-04-22 19:47 38.78463 -9.13414 382 ft 149 kts 202°
2026-04-22 19:47 38.77361 -9.14018 508 ft 185 kts 205°
2026-04-22 19:47 38.76199 -9.14702 1132 ft 186 kts 206°
2026-04-22 19:47 38.75030 -9.15410 1806 ft 188 kts 207°
2026-04-22 19:48 38.73862 -9.16142 2482 ft 186 kts 206°
2026-04-22 19:48 38.72683 -9.16833 2986 ft 192 kts 199°
2026-04-22 19:48 38.71370 -9.17413 3378 ft 205 kts 197°
2026-04-22 19:48 38.69935 -9.17847 3710 ft 220 kts 185°
2026-04-22 19:49 38.68316 -9.17960 4002 ft 241 kts 180°
2026-04-22 19:49 38.66571 -9.18018 4431 ft 258 kts 180°
2026-04-22 19:49 38.64757 -9.18094 5126 ft 262 kts 181°
2026-04-22 19:49 38.62951 -9.18191 5946 ft 262 kts 181°
2026-04-22 19:50 38.61127 -9.18302 6738 ft 263 kts 182°
2026-04-22 19:50 38.59301 -9.18420 7476 ft 264 kts 182°
2026-04-22 19:50 38.57462 -9.18544 8198 ft 266 kts 183°
2026-04-22 19:50 38.55608 -9.18675 8898 ft 269 kts 183°
2026-04-22 19:51 38.53725 -9.18810 9587 ft 271 kts 184°
2026-04-22 19:51 38.51827 -9.18947 10255 ft 273 kts 184°
2026-04-22 19:51 38.49882 -9.19090 10670 ft 286 kts 184°
2026-04-22 19:51 38.47844 -9.19242 10962 ft 302 kts 184°
2026-04-22 19:52 38.45674 -9.19404 11255 ft 317 kts 184°
2026-04-22 19:52 38.43427 -9.19571 11636 ft 329 kts 184°
2026-04-22 19:52 38.41118 -9.19741 12237 ft 333 kts 184°
2026-04-22 19:52 38.38815 -9.19910 12880 ft 335 kts 185°
2026-04-22 19:53 38.36445 -9.20084 13545 ft 337 kts 185°
2026-04-22 19:53 38.34093 -9.20256 14158 ft 339 kts 185°
2026-04-22 19:53 38.31728 -9.20430 14745 ft 342 kts 185°
2026-04-22 19:53 38.29330 -9.20607 15311 ft 345 kts 185°
2026-04-22 19:54 38.26932 -9.20783 15866 ft 347 kts 185°
2026-04-22 19:54 38.24522 -9.20960 16394 ft 350 kts 185°
2026-04-22 19:54 38.22064 -9.21141 16931 ft 352 kts 185°
2026-04-22 19:54 38.19615 -9.21321 17435 ft 355 kts 185°
2026-04-22 19:55 38.17135 -9.21503 17937 ft 358 kts 185°
2026-04-22 19:55 38.14643 -9.21687 18438 ft 361 kts 185°
2026-04-22 19:55 38.12118 -9.21871 18932 ft 363 kts 185°
2026-04-22 19:55 38.09612 -9.22053 19412 ft 366 kts 185°
2026-04-22 19:56 38.07052 -9.22240 19900 ft 368 kts 186°
2026-04-22 19:56 38.04506 -9.22426 20379 ft 370 kts 186°
2026-04-22 19:56 38.01938 -9.22613 20820 ft 372 kts 186°
2026-04-22 19:56 37.99340 -9.22804 21276 ft 374 kts 186°
2026-04-22 19:57 37.96723 -9.22996 21706 ft 377 kts 186°
2026-04-22 19:57 37.94109 -9.23187 22130 ft 379 kts 186°
2026-04-22 19:57 37.91480 -9.23379 22553 ft 381 kts 186°
2026-04-22 19:57 37.88813 -9.23573 22960 ft 384 kts 186°
2026-04-22 19:58 37.86116 -9.23768 23362 ft 386 kts 186°
2026-04-22 19:58 37.83438 -9.23962 23765 ft 388 kts 186°
2026-04-22 19:58 37.80735 -9.24158 24146 ft 390 kts 186°
2026-04-22 19:58 37.78014 -9.24355 24523 ft 392 kts 186°
2026-04-22 19:59 37.75297 -9.24553 24902 ft 394 kts 186°
2026-04-22 20:00 37.58646 -9.25756 26891 ft 405 kts 186°
2026-04-22 20:00 37.55831 -9.25960 27178 ft 407 kts 186°
2026-04-22 20:01 37.53013 -9.26163 27463 ft 409 kts 187°
2026-04-22 20:01 37.50149 -9.26369 27748 ft 410 kts 186°
2026-04-22 20:01 37.47322 -9.26573 28010 ft 412 kts 187°
2026-04-22 20:01 37.44442 -9.26780 28282 ft 413 kts 187°
2026-04-22 20:02 37.41590 -9.26986 28531 ft 415 kts 187°
2026-04-22 20:02 37.38698 -9.27194 28764 ft 417 kts 186°
2026-04-22 20:02 37.35774 -9.27403 28986 ft 419 kts 187°
2026-04-22 20:02 37.32878 -9.27610 29254 ft 419 kts 187°
2026-04-22 20:03 37.29954 -9.27819 29557 ft 419 kts 187°
2026-04-22 20:03 37.27050 -9.28025 29842 ft 419 kts 187°
2026-04-22 20:03 37.24149 -9.28233 30062 ft 420 kts 187°
2026-04-22 20:03 37.21233 -9.28442 30256 ft 421 kts 187°
2026-04-22 20:04 37.18321 -9.28651 30470 ft 422 kts 187°
2026-04-22 20:04 37.15363 -9.28863 30683 ft 423 kts 187°
2026-04-22 20:04 37.12431 -9.29072 30877 ft 423 kts 187°
2026-04-22 20:04 37.09490 -9.29281 30990 ft 424 kts 187°
2026-04-22 20:05 37.06530 -9.29492 30993 ft 425 kts 187°
2026-04-22 20:05 37.00660 -9.29909 30998 ft 424 kts 187°
2026-04-22 20:06 36.94788 -9.30326 31002 ft 424 kts 187°
2026-04-22 20:06 36.88844 -9.30746 31010 ft 425 kts 187°
2026-04-22 20:07 36.82967 -9.31164 31005 ft 425 kts 187°
2026-04-22 20:07 36.77063 -9.31581 31007 ft 426 kts 187°
2026-04-22 20:08 36.71131 -9.31999 31010 ft 426 kts 187°
2026-04-22 20:08 36.65235 -9.32415 31004 ft 426 kts 187°
2026-04-22 20:09 36.59311 -9.32831 31003 ft 425 kts 187°
2026-04-22 20:09 36.53444 -9.33244 30999 ft 425 kts 187°
2026-04-22 20:10 36.47539 -9.33657 31000 ft 425 kts 187°
2026-04-22 20:10 36.41637 -9.34071 31008 ft 425 kts 187°
2026-04-22 20:11 36.35704 -9.34485 31014 ft 425 kts 187°
2026-04-22 20:11 36.29823 -9.34895 31015 ft 425 kts 187°
2026-04-22 20:12 36.23922 -9.35308 31014 ft 425 kts 187°
2026-04-22 20:12 36.18028 -9.35719 31014 ft 426 kts 187°
2026-04-22 20:13 36.12095 -9.36132 31014 ft 426 kts 187°
2026-04-22 20:13 36.06205 -9.36541 31014 ft 426 kts 187°
2026-04-22 20:14 36.00292 -9.36951 31014 ft 426 kts 187°
2026-04-22 20:14 35.94375 -9.37363 31015 ft 426 kts 187°
2026-04-22 20:15 35.88448 -9.37794 31016 ft 426 kts 187°
2026-04-22 20:15 35.82539 -9.38225 31016 ft 427 kts 187°
2026-04-22 20:16 35.76606 -9.38654 31017 ft 425 kts 187°
2026-04-22 20:16 35.70713 -9.39082 31018 ft 425 kts 187°
2026-04-22 20:17 35.64790 -9.39512 31021 ft 427 kts 187°
2026-04-22 20:17 35.58863 -9.39940 31022 ft 427 kts 187°
2026-04-22 20:18 35.52932 -9.40367 31024 ft 427 kts 187°
2026-04-22 20:18 35.47004 -9.40793 31024 ft 427 kts 187°
2026-04-22 20:19 35.41077 -9.41219 31022 ft 427 kts 187°
2026-04-22 20:19 35.35151 -9.41644 31020 ft 427 kts 187°
2026-04-22 20:20 35.29224 -9.42070 31021 ft 427 kts 187°
2026-04-22 20:20 35.23310 -9.42492 31021 ft 427 kts 187°
2026-04-22 20:21 35.17366 -9.42916 31021 ft 427 kts 187°
2026-04-22 20:21 35.11422 -9.43341 31020 ft 428 kts 187°
2026-04-22 20:22 35.05492 -9.43763 31023 ft 428 kts 187°
2026-04-22 20:22 34.99563 -9.44185 31024 ft 428 kts 187°
2026-04-22 20:23 34.93635 -9.44605 31021 ft 427 kts 187°
2026-04-22 20:23 34.87649 -9.45030 31023 ft 428 kts 187°
2026-04-22 20:24 34.81730 -9.45450 31022 ft 429 kts 187°
2026-04-22 20:24 34.75756 -9.45873 31022 ft 428 kts 187°
2026-04-22 20:25 34.69794 -9.46292 31021 ft 429 kts 187°
2026-04-22 20:25 34.63854 -9.46711 31019 ft 428 kts 187°
2026-04-22 20:26 34.57920 -9.47129 31016 ft 428 kts 187°
2026-04-22 20:26 34.51984 -9.47547 31018 ft 429 kts 187°
2026-04-22 20:27 34.46030 -9.47965 31020 ft 428 kts 187°
2026-04-22 20:27 34.40083 -9.48381 31020 ft 429 kts 187°
2026-04-22 20:28 34.34099 -9.48801 31019 ft 428 kts 186°
2026-04-22 20:28 34.28160 -9.49215 31019 ft 429 kts 186°
2026-04-22 20:29 34.22229 -9.49629 31024 ft 428 kts 187°
2026-04-22 20:29 34.16256 -9.50046 31022 ft 428 kts 187°
2026-04-22 20:30 34.10336 -9.50459 31022 ft 428 kts 186°
2026-04-22 20:30 34.04353 -9.50873 31024 ft 429 kts 186°
2026-04-22 20:31 33.98398 -9.51287 31023 ft 429 kts 186°
2026-04-22 20:31 33.92462 -9.51698 31023 ft 429 kts 186°
2026-04-22 20:32 33.86471 -9.52113 31026 ft 429 kts 186°
2026-04-22 20:32 33.80497 -9.52526 31026 ft 429 kts 186°
2026-04-22 20:33 33.74538 -9.52937 31023 ft 430 kts 186°
2026-04-22 20:33 33.68564 -9.53348 31024 ft 429 kts 186°
2026-04-22 20:34 33.62604 -9.53758 31022 ft 429 kts 187°
2026-04-22 20:34 33.56644 -9.54168 31023 ft 429 kts 187°
2026-04-22 20:35 33.50690 -9.54578 31025 ft 429 kts 187°
2026-04-22 20:35 33.44740 -9.54986 31019 ft 429 kts 187°
2026-04-22 20:36 33.38806 -9.55391 31015 ft 429 kts 187°
2026-04-22 20:36 33.32852 -9.55799 31016 ft 430 kts 187°
2026-04-22 20:37 33.26854 -9.56208 31017 ft 430 kts 186°
2026-04-22 20:37 33.20878 -9.56616 31015 ft 430 kts 186°
2026-04-22 20:38 33.14926 -9.57020 31014 ft 430 kts 187°
2026-04-22 20:38 33.08951 -9.57427 31014 ft 429 kts 187°
2026-04-22 20:39 33.03005 -9.57830 31013 ft 429 kts 186°
2026-04-22 20:39 32.97004 -9.58239 31010 ft 430 kts 186°
2026-04-22 20:40 32.91055 -9.58640 31009 ft 429 kts 187°
2026-04-22 20:40 32.84997 -9.59049 31009 ft 429 kts 187°
2026-04-22 20:41 32.79044 -9.59452 31010 ft 430 kts 187°
2026-04-22 20:41 32.73053 -9.59857 31012 ft 430 kts 187°
2026-04-22 20:42 32.67086 -9.60258 31009 ft 430 kts 187°
2026-04-22 20:42 32.61108 -9.60661 31011 ft 430 kts 187°
2026-04-22 20:43 32.55107 -9.61063 31011 ft 430 kts 187°
2026-04-22 20:43 32.49154 -9.61464 31021 ft 430 kts 187°
2026-04-22 20:44 32.43148 -9.61866 31023 ft 430 kts 187°
2026-04-22 20:44 32.37164 -9.62265 31026 ft 430 kts 187°
2026-04-22 20:45 32.31223 -9.62662 31022 ft 429 kts 187°
2026-04-22 20:45 32.25259 -9.63061 31018 ft 431 kts 187°
2026-04-22 20:46 32.16256 -9.63660 31018 ft 431 kts 187°
2026-04-22 20:46 32.10293 -9.64058 31018 ft 431 kts 187°
2026-04-22 20:47 32.04287 -9.64456 31026 ft 431 kts 187°
2026-04-22 20:47 31.98307 -9.64854 31021 ft 431 kts 187°
2026-04-22 20:48 31.92289 -9.65250 31025 ft 431 kts 186°
2026-04-22 20:48 31.86269 -9.65651 31022 ft 431 kts 186°
2026-04-22 20:49 31.80260 -9.66047 31025 ft 431 kts 186°
2026-04-22 20:49 31.74268 -9.66442 31023 ft 431 kts 186°
2026-04-22 20:50 31.68251 -9.66840 31023 ft 432 kts 186°
2026-04-22 20:50 31.62253 -9.67235 31025 ft 432 kts 186°
2026-04-22 20:51 31.56258 -9.67628 31019 ft 432 kts 187°
2026-04-22 20:51 31.50269 -9.68022 31022 ft 432 kts 186°
2026-04-22 20:52 31.44235 -9.68249 31014 ft 434 kts 182°
2026-04-22 20:52 31.38174 -9.67746 31014 ft 436 kts 177°
2026-04-22 20:53 31.32167 -9.66467 31012 ft 438 kts 171°
2026-04-22 20:53 31.26257 -9.64819 31019 ft 437 kts 171°
2026-04-22 20:54 31.20316 -9.63162 31023 ft 437 kts 171°
2026-04-22 20:54 31.14417 -9.61520 31032 ft 438 kts 171°
2026-04-22 20:55 31.08477 -9.59868 31028 ft 437 kts 171°
2026-04-22 20:55 31.02552 -9.58207 31043 ft 437 kts 171°
2026-04-22 20:56 30.96632 -9.56506 31049 ft 438 kts 171°
2026-04-22 20:56 30.90710 -9.54801 31060 ft 438 kts 171°
2026-04-22 20:57 30.84709 -9.53082 31065 ft 438 kts 171°
2026-04-22 20:57 30.78758 -9.51380 31071 ft 438 kts 171°
2026-04-22 20:58 30.72860 -9.49694 31074 ft 437 kts 171°
2026-04-22 20:58 30.66899 -9.48022 31078 ft 438 kts 171°
2026-04-22 20:59 30.60987 -9.46370 31059 ft 437 kts 171°
2026-04-22 20:59 30.55002 -9.44700 31053 ft 438 kts 172°
2026-04-22 21:00 30.49083 -9.43051 31041 ft 438 kts 171°
2026-04-22 21:00 30.43116 -9.41386 31023 ft 438 kts 172°
2026-04-22 21:01 30.37118 -9.39917 31015 ft 434 kts 178°
2026-04-22 21:01 30.31087 -9.39866 31007 ft 430 kts 190°
2026-04-22 21:02 30.25295 -9.41370 31013 ft 427 kts 202°
2026-04-22 21:02 30.19726 -9.43746 31012 ft 425 kts 204°
2026-04-22 21:03 30.14200 -9.46156 31008 ft 423 kts 204°
2026-04-22 21:03 30.08661 -9.48569 31021 ft 423 kts 204°
2026-04-22 21:04 30.03143 -9.50963 31020 ft 422 kts 204°
2026-04-22 21:04 29.97636 -9.53350 31021 ft 423 kts 204°
2026-04-22 21:05 29.92117 -9.55738 31029 ft 422 kts 204°
2026-04-22 21:05 29.86522 -9.58177 31024 ft 422 kts 205°
2026-04-22 21:06 29.81008 -9.60582 31024 ft 422 kts 204°
2026-04-22 21:06 29.75479 -9.62992 31026 ft 423 kts 204°
2026-04-22 21:07 29.69995 -9.65377 31021 ft 422 kts 205°
2026-04-22 21:07 29.64461 -9.67783 31032 ft 424 kts 204°
2026-04-22 21:08 29.58933 -9.70179 31034 ft 423 kts 205°
2026-04-22 21:08 29.53394 -9.72574 31046 ft 422 kts 205°
2026-04-22 21:09 29.47885 -9.74958 31064 ft 423 kts 205°
2026-04-22 21:09 29.42348 -9.77352 31067 ft 423 kts 205°
2026-04-22 21:10 29.36829 -9.79733 31067 ft 423 kts 205°
2026-04-22 21:10 29.31323 -9.82110 31054 ft 423 kts 205°
2026-04-22 21:11 29.25774 -9.84500 31063 ft 424 kts 205°
2026-04-22 21:11 29.20250 -9.86877 31048 ft 423 kts 205°
2026-04-22 21:12 29.14774 -9.89231 31040 ft 422 kts 205°
2026-04-22 21:12 29.09252 -9.91602 31031 ft 423 kts 205°
2026-04-22 21:13 29.03716 -9.93977 31015 ft 422 kts 205°
2026-04-22 21:13 28.98192 -9.96339 31009 ft 423 kts 205°
2026-04-22 21:14 28.92670 -9.98690 31003 ft 422 kts 205°
2026-04-22 21:14 28.87127 -10.01043 31007 ft 423 kts 205°
2026-04-22 21:15 28.81562 -10.03410 31008 ft 423 kts 206°
2026-04-22 21:15 28.76023 -10.05758 30990 ft 422 kts 206°
2026-04-22 21:16 28.70514 -10.08096 30997 ft 421 kts 206°
2026-04-22 21:16 28.65011 -10.10427 30997 ft 422 kts 206°
2026-04-22 21:17 28.59513 -10.12754 31012 ft 423 kts 206°
2026-04-22 21:17 28.53971 -10.15098 31008 ft 423 kts 206°
2026-04-22 21:18 28.48433 -10.17433 30992 ft 424 kts 206°
2026-04-22 21:18 28.42913 -10.19761 30997 ft 422 kts 206°
2026-04-22 21:19 28.37381 -10.22091 30994 ft 423 kts 206°
2026-04-22 21:19 28.31867 -10.24411 31002 ft 422 kts 206°
2026-04-22 21:20 28.26346 -10.26732 30981 ft 422 kts 207°
2026-04-22 21:20 28.20832 -10.29044 30973 ft 423 kts 207°
2026-04-22 21:21 28.15319 -10.31356 30976 ft 423 kts 207°
2026-04-22 21:21 28.09773 -10.33681 30976 ft 423 kts 207°
2026-04-22 21:22 28.04246 -10.35992 30986 ft 422 kts 207°
2026-04-22 21:22 27.98717 -10.38304 30986 ft 422 kts 207°
2026-04-22 21:23 27.93208 -10.40605 30988 ft 423 kts 207°
2026-04-22 21:23 27.87655 -10.42921 30989 ft 421 kts 207°
2026-04-22 21:24 27.82128 -10.45222 30992 ft 422 kts 207°
2026-04-22 21:24 27.76606 -10.47522 30987 ft 422 kts 207°
2026-04-22 21:25 27.71072 -10.49826 30999 ft 421 kts 207°
2026-04-22 21:25 27.65570 -10.52115 30990 ft 420 kts 208°
2026-04-22 21:26 27.60114 -10.54461 30995 ft 420 kts 209°
2026-04-22 21:26 27.54668 -10.56816 30993 ft 419 kts 208°
2026-04-22 21:27 27.49202 -10.59170 30988 ft 419 kts 209°
2026-04-22 21:27 27.43761 -10.61510 30987 ft 419 kts 209°
2026-04-22 21:28 27.38320 -10.63848 30990 ft 418 kts 208°
2026-04-22 21:28 27.32832 -10.66203 30984 ft 419 kts 208°
2026-04-22 21:29 27.27394 -10.68532 30972 ft 418 kts 208°
2026-04-22 21:29 27.21938 -10.70868 30975 ft 417 kts 209°
2026-04-22 21:30 27.16503 -10.73192 30965 ft 417 kts 209°
2026-04-22 21:30 27.11096 -10.75502 30962 ft 416 kts 208°
2026-04-22 21:31 27.05645 -10.77827 30960 ft 417 kts 209°
2026-04-22 21:31 27.00225 -10.80140 30961 ft 418 kts 209°
2026-04-22 21:32 26.94787 -10.82455 30962 ft 419 kts 209°
2026-04-22 21:32 26.89300 -10.84790 30968 ft 417 kts 209°
2026-04-22 21:33 26.83826 -10.87117 30968 ft 419 kts 209°
2026-04-22 21:33 26.78356 -10.89441 30967 ft 419 kts 209°
2026-04-22 21:34 26.72873 -10.91765 30968 ft 418 kts 209°
2026-04-22 21:34 26.67449 -10.94061 30969 ft 418 kts 209°
2026-04-22 21:35 26.61992 -10.96374 30965 ft 420 kts 210°
2026-04-22 21:35 26.56510 -10.98692 30966 ft 419 kts 209°
2026-04-22 21:36 26.51061 -11.00992 30969 ft 419 kts 209°
2026-04-22 21:36 26.45612 -11.03291 30965 ft 420 kts 210°
2026-04-22 21:37 26.40121 -11.05606 30965 ft 420 kts 210°
2026-04-22 21:37 26.34651 -11.07908 30966 ft 420 kts 209°
2026-04-22 21:38 26.29151 -11.10223 30966 ft 420 kts 210°
2026-04-22 21:38 26.23675 -11.12522 30966 ft 420 kts 209°
2026-04-22 21:39 26.18201 -11.14822 30968 ft 420 kts 210°
2026-04-22 21:39 26.12718 -11.17118 30972 ft 420 kts 210°
2026-04-22 21:40 26.07239 -11.19413 30980 ft 420 kts 210°
2026-04-22 21:40 26.01778 -11.21698 30984 ft 420 kts 210°
2026-04-22 21:41 25.96291 -11.23993 30985 ft 420 kts 210°
2026-04-22 21:41 25.90813 -11.26280 30989 ft 419 kts 210°
2026-04-22 21:42 25.85334 -11.28568 30991 ft 419 kts 210°
2026-04-22 21:42 25.79838 -11.30861 30993 ft 420 kts 210°
2026-04-22 21:43 25.74353 -11.33145 30989 ft 420 kts 210°
2026-04-22 21:43 25.68900 -11.35415 30990 ft 419 kts 210°
2026-04-22 21:44 25.63430 -11.37688 30988 ft 419 kts 210°
2026-04-22 21:44 25.57944 -11.39966 30985 ft 419 kts 211°
2026-04-22 21:45 25.52519 -11.42218 30995 ft 418 kts 210°
2026-04-22 21:45 25.47041 -11.44488 30992 ft 419 kts 211°
2026-04-22 21:46 25.41572 -11.46753 30992 ft 419 kts 210°
2026-04-22 21:46 25.36110 -11.49013 30988 ft 419 kts 210°
2026-04-22 21:47 25.30677 -11.51261 30984 ft 419 kts 210°
2026-04-22 21:47 25.25216 -11.53517 30981 ft 419 kts 210°
2026-04-22 21:48 25.19711 -11.55756 30975 ft 420 kts 209°
2026-04-22 21:48 25.14204 -11.57829 30971 ft 419 kts 209°
2026-04-22 21:49 25.08656 -11.59909 30960 ft 420 kts 209°
2026-04-22 21:49 25.03139 -11.61983 30954 ft 419 kts 209°
2026-04-22 21:50 24.97596 -11.64071 30953 ft 419 kts 210°
2026-04-22 21:50 24.92027 -11.66166 30955 ft 419 kts 209°
2026-04-22 21:51 24.86447 -11.68268 30951 ft 419 kts 209°
2026-04-22 21:52 24.78168 -11.71382 30950 ft 420 kts 209°
2026-04-22 21:52 24.72631 -11.73462 30950 ft 419 kts 209°
2026-04-22 21:53 24.67119 -11.75531 30946 ft 419 kts 209°
2026-04-22 21:53 24.61593 -11.77601 30949 ft 419 kts 209°
2026-04-22 21:54 24.56084 -11.79665 30948 ft 419 kts 209°
2026-04-22 21:54 24.50553 -11.81734 30948 ft 418 kts 209°
2026-04-22 21:55 24.45020 -11.83804 30952 ft 419 kts 209°
2026-04-22 21:55 24.39507 -11.85861 30951 ft 418 kts 209°
2026-04-22 21:56 24.33999 -11.87916 30945 ft 418 kts 209°
2026-04-22 21:56 24.28454 -11.89985 30943 ft 419 kts 209°
2026-04-22 21:57 24.22960 -11.92031 30947 ft 418 kts 209°
2026-04-22 21:57 24.17424 -11.94089 30947 ft 418 kts 210°
2026-04-22 21:58 24.11892 -11.96147 30946 ft 418 kts 210°
2026-04-22 21:58 24.06367 -11.98200 30944 ft 418 kts 209°
2026-04-22 21:59 24.00867 -12.00240 30945 ft 419 kts 209°
2026-04-22 21:59 23.95350 -12.02285 30938 ft 419 kts 209°
2026-04-22 22:00 23.89784 -12.04346 30936 ft 419 kts 209°
2026-04-22 22:00 23.84148 -12.06437 31011 ft 426 kts 209°
2026-04-22 22:00 23.81329 -12.07480 31204 ft 428 kts 209°
2026-04-22 22:01 23.78491 -12.08528 31478 ft 426 kts 209°
2026-04-22 22:01 23.75685 -12.09558 31791 ft 424 kts 209°
2026-04-22 22:01 23.72861 -12.10600 32036 ft 424 kts 209°
2026-04-22 22:01 23.70023 -12.11647 32335 ft 422 kts 210°
2026-04-22 22:02 23.67217 -12.12679 32638 ft 420 kts 210°
2026-04-22 22:02 23.64436 -12.13707 32899 ft 419 kts 210°
2026-04-22 22:02 23.61682 -12.14726 33160 ft 418 kts 210°
2026-04-22 22:02 23.58903 -12.15752 33481 ft 416 kts 209°
2026-04-22 22:03 23.56119 -12.16779 33766 ft 415 kts 210°
2026-04-22 22:03 23.53393 -12.17783 34042 ft 414 kts 209°
2026-04-22 22:03 23.50668 -12.18786 34317 ft 412 kts 209°
2026-04-22 22:03 23.47912 -12.19800 34547 ft 412 kts 209°
2026-04-22 22:04 23.45190 -12.20802 34745 ft 411 kts 209°
2026-04-22 22:04 23.42481 -12.21797 34932 ft 410 kts 209°
2026-04-22 22:04 23.39742 -12.22800 34930 ft 410 kts 209°
2026-04-22 22:05 23.34307 -12.24795 34936 ft 410 kts 209°
2026-04-22 22:05 23.28906 -12.26775 34939 ft 408 kts 209°
2026-04-22 22:06 23.23477 -12.28764 34944 ft 410 kts 209°
2026-04-22 22:06 23.18052 -12.30752 34948 ft 410 kts 208°
2026-04-22 22:07 23.12595 -12.32747 34951 ft 409 kts 209°
2026-04-22 22:07 23.07166 -12.34731 34953 ft 411 kts 209°
2026-04-22 22:08 23.01731 -12.36717 34954 ft 411 kts 208°
2026-04-22 22:08 22.96243 -12.38719 34955 ft 412 kts 209°
2026-04-22 22:09 22.90830 -12.40692 34954 ft 411 kts 209°
2026-04-22 22:09 22.85318 -12.42702 34955 ft 411 kts 209°
2026-04-22 22:10 22.79858 -12.44692 34958 ft 412 kts 208°
2026-04-22 22:10 22.74375 -12.46536 34959 ft 416 kts 205°
2026-04-22 22:11 22.68711 -12.48086 34959 ft 417 kts 204°
2026-04-22 22:11 22.63105 -12.49611 34953 ft 416 kts 204°
2026-04-22 22:12 22.57456 -12.51149 34950 ft 418 kts 204°
2026-04-22 22:12 22.51792 -12.52688 34946 ft 418 kts 204°
2026-04-22 22:13 22.46129 -12.54222 34945 ft 419 kts 204°
2026-04-22 22:13 22.40490 -12.55753 34944 ft 419 kts 204°
2026-04-22 22:14 22.34813 -12.57286 34944 ft 416 kts 204°
2026-04-22 22:14 22.29189 -12.58810 34948 ft 417 kts 204°
2026-04-22 22:15 22.23531 -12.60343 34947 ft 418 kts 204°
2026-04-22 22:15 22.17910 -12.61858 34944 ft 417 kts 204°
2026-04-22 22:16 22.12247 -12.63385 34947 ft 417 kts 204°
2026-04-22 22:16 22.06613 -12.64906 34942 ft 418 kts 204°
2026-04-22 22:17 22.00885 -12.66447 34946 ft 419 kts 203°
2026-04-22 22:17 21.95232 -12.67972 34943 ft 418 kts 202°
2026-04-22 22:18 21.89566 -12.69494 34950 ft 418 kts 203°
2026-04-22 22:18 21.83857 -12.71028 34947 ft 417 kts 202°
2026-04-22 22:19 21.78204 -12.72547 34953 ft 419 kts 203°
2026-04-22 22:19 21.72524 -12.74073 34951 ft 418 kts 203°
2026-04-22 22:20 21.66827 -12.75599 34950 ft 418 kts 202°
2026-04-22 22:20 21.61176 -12.77111 34940 ft 419 kts 203°
2026-04-22 22:21 21.55496 -12.78633 34934 ft 419 kts 202°
2026-04-22 22:21 21.49827 -12.80150 34931 ft 418 kts 202°
2026-04-22 22:22 21.44131 -12.81674 34944 ft 419 kts 202°
2026-04-22 22:22 21.38462 -12.83188 34961 ft 417 kts 202°
2026-04-22 22:23 21.32820 -12.84691 34960 ft 418 kts 202°
2026-04-22 22:23 21.27147 -12.86205 34962 ft 419 kts 202°
2026-04-22 22:24 21.21445 -12.87723 34968 ft 420 kts 202°
2026-04-22 22:24 21.15682 -12.88995 34968 ft 423 kts 198°
2026-04-22 22:25 21.09875 -12.90101 34967 ft 421 kts 198°
2026-04-22 22:25 21.04080 -12.91220 34969 ft 422 kts 198°
2026-04-22 22:26 20.98269 -12.92355 34968 ft 422 kts 198°
2026-04-22 22:26 20.92495 -12.93486 34966 ft 422 kts 198°
2026-04-22 22:27 20.86597 -12.94642 34964 ft 423 kts 198°
2026-04-22 22:27 20.80770 -12.95783 34959 ft 422 kts 198°
2026-04-22 22:28 20.74938 -12.96927 34956 ft 423 kts 198°
2026-04-22 22:28 20.69147 -12.98063 34955 ft 422 kts 198°
2026-04-22 22:29 20.63368 -12.99194 34952 ft 422 kts 198°
2026-04-22 22:29 20.57576 -13.00326 34948 ft 423 kts 198°
2026-04-22 22:30 20.51745 -13.01467 34943 ft 422 kts 198°
2026-04-22 22:30 20.45967 -13.02593 34941 ft 421 kts 198°
2026-04-22 22:31 20.40170 -13.03725 34941 ft 422 kts 198°
2026-04-22 22:31 20.34386 -13.04855 34944 ft 422 kts 198°
2026-04-22 22:32 20.28595 -13.05981 34944 ft 422 kts 198°
2026-04-22 22:32 20.22771 -13.07118 34946 ft 421 kts 197°
2026-04-22 22:33 20.16964 -13.08246 34940 ft 422 kts 197°
2026-04-22 22:33 20.11174 -13.09372 34939 ft 422 kts 197°
2026-04-22 22:34 20.05375 -13.10498 34939 ft 422 kts 197°
2026-04-22 22:34 19.99570 -13.11626 34943 ft 422 kts 197°
2026-04-22 22:35 19.93759 -13.12752 34951 ft 423 kts 197°
2026-04-22 22:35 19.87893 -13.13891 34957 ft 422 kts 197°
2026-04-22 22:36 19.82016 -13.15027 34954 ft 423 kts 197°
2026-04-22 22:36 19.76202 -13.16154 34950 ft 423 kts 197°
2026-04-22 22:37 19.70401 -13.17276 34942 ft 423 kts 197°
2026-04-22 22:37 19.64592 -13.18399 34934 ft 422 kts 197°
2026-04-22 22:38 19.58765 -13.19523 34928 ft 423 kts 197°
2026-04-22 22:38 19.52930 -13.20650 34923 ft 425 kts 197°
2026-04-22 22:39 19.47095 -13.21775 34915 ft 424 kts 197°
2026-04-22 22:39 19.41274 -13.22895 34911 ft 425 kts 197°
2026-04-22 22:40 19.35407 -13.24024 34909 ft 426 kts 197°
2026-04-22 22:40 19.29580 -13.25147 34907 ft 424 kts 197°
2026-04-22 22:41 19.23733 -13.26273 34905 ft 424 kts 197°
2026-04-22 22:41 19.17831 -13.27406 34898 ft 426 kts 197°
2026-04-22 22:42 19.11995 -13.28527 34894 ft 425 kts 197°
2026-04-22 22:42 19.06143 -13.29649 34890 ft 425 kts 196°
2026-04-22 22:43 19.00297 -13.30769 34887 ft 425 kts 196°
2026-04-22 22:43 18.94429 -13.31893 34886 ft 426 kts 196°
2026-04-22 22:44 18.88515 -13.33027 34886 ft 426 kts 196°
2026-04-22 22:44 18.82636 -13.34149 34888 ft 426 kts 196°
2026-04-22 22:45 18.76782 -13.35271 34890 ft 427 kts 196°
2026-04-22 22:45 18.70895 -13.36396 34888 ft 427 kts 196°
2026-04-22 22:46 18.65027 -13.37513 34885 ft 427 kts 196°
2026-04-22 22:46 18.59134 -13.38639 34887 ft 427 kts 196°
2026-04-22 22:47 18.53272 -13.39756 34889 ft 427 kts 196°
2026-04-22 22:47 18.47499 -13.40855 34888 ft 427 kts 196°
2026-04-22 22:48 18.41634 -13.41973 34891 ft 427 kts 196°
2026-04-22 22:48 18.35756 -13.43091 34891 ft 427 kts 196°
2026-04-22 22:49 18.29881 -13.44209 34890 ft 427 kts 196°
2026-04-22 22:49 18.23972 -13.45331 34894 ft 428 kts 196°
2026-04-22 22:50 18.18105 -13.46445 34898 ft 428 kts 195°
2026-04-22 22:50 18.12207 -13.47563 34898 ft 429 kts 195°
2026-04-22 22:51 18.06303 -13.48684 34896 ft 429 kts 195°
2026-04-22 22:51 18.00374 -13.49806 34897 ft 428 kts 195°
2026-04-22 22:52 17.94497 -13.50917 34896 ft 428 kts 195°
2026-04-22 22:52 17.88576 -13.52038 34900 ft 429 kts 195°
2026-04-22 22:53 17.82635 -13.53161 34898 ft 428 kts 195°
2026-04-22 22:53 17.76728 -13.54278 34894 ft 428 kts 195°
2026-04-22 22:54 17.70897 -13.55378 34895 ft 428 kts 195°
2026-04-22 22:54 17.65013 -13.56489 34896 ft 428 kts 195°
2026-04-22 22:55 17.59117 -13.57601 34896 ft 428 kts 195°
2026-04-22 22:55 17.50248 -13.59273 34887 ft 428 kts 195°
2026-04-22 22:56 17.44356 -13.60381 34877 ft 428 kts 195°
2026-04-22 22:56 17.38457 -13.61492 34877 ft 428 kts 195°
2026-04-22 22:57 17.32526 -13.62607 34878 ft 429 kts 195°
2026-04-22 22:57 17.26619 -13.63716 34877 ft 429 kts 195°
2026-04-22 22:58 17.20715 -13.64825 34879 ft 428 kts 195°
2026-04-22 22:58 17.14796 -13.65934 34879 ft 428 kts 195°
2026-04-22 22:59 17.08901 -13.67041 34875 ft 429 kts 194°
2026-04-22 22:59 17.02999 -13.68148 34875 ft 428 kts 195°
2026-04-22 23:00 16.97068 -13.69257 34876 ft 428 kts 195°
2026-04-22 23:00 16.91136 -13.70367 34882 ft 429 kts 194°
2026-04-22 23:01 16.85142 -13.71489 34883 ft 430 kts 195°
2026-04-22 23:01 16.79200 -13.72599 34886 ft 429 kts 194°
2026-04-22 23:02 16.73312 -13.73698 34884 ft 429 kts 195°
2026-04-22 23:02 16.67415 -13.74800 34883 ft 428 kts 194°
2026-04-22 23:03 16.61539 -13.75897 34881 ft 429 kts 195°
2026-04-22 23:03 16.55650 -13.76996 34885 ft 428 kts 194°
2026-04-22 23:04 16.49711 -13.78103 34885 ft 429 kts 194°
2026-04-22 23:04 16.43776 -13.79208 34883 ft 430 kts 194°
2026-04-22 23:05 16.37869 -13.80306 34890 ft 430 kts 194°
2026-04-22 23:05 16.31955 -13.81406 34887 ft 430 kts 194°
2026-04-22 23:06 16.26055 -13.82503 34883 ft 429 kts 194°
2026-04-22 23:06 16.20119 -13.83606 34877 ft 430 kts 194°
2026-04-22 23:07 16.14212 -13.84700 34885 ft 428 kts 194°
2026-04-22 23:07 16.08326 -13.85792 34888 ft 427 kts 194°
2026-04-22 23:08 16.02389 -13.86893 34884 ft 428 kts 194°
2026-04-22 23:08 15.96519 -13.87983 34890 ft 429 kts 194°
2026-04-22 23:09 15.90592 -13.89081 34897 ft 429 kts 194°
2026-04-22 23:09 15.84722 -13.90169 34894 ft 429 kts 194°
2026-04-22 23:10 15.78776 -13.91268 34894 ft 430 kts 194°
2026-04-22 23:10 15.72849 -13.92363 34892 ft 430 kts 194°
2026-04-22 23:11 15.66927 -13.93457 34890 ft 430 kts 194°
2026-04-22 23:11 15.61008 -13.94550 34884 ft 429 kts 193°
2026-04-22 23:12 15.55090 -13.95643 34882 ft 429 kts 193°
2026-04-22 23:12 15.49209 -13.96726 34881 ft 430 kts 193°
2026-04-22 23:13 15.43304 -13.97814 34882 ft 429 kts 193°
2026-04-22 23:13 15.37371 -13.98908 34881 ft 429 kts 193°
2026-04-22 23:14 15.31440 -14.00001 34882 ft 429 kts 193°
2026-04-22 23:14 15.25485 -14.01097 34879 ft 430 kts 193°
2026-04-22 23:15 15.19544 -14.02189 34881 ft 430 kts 193°
2026-04-22 23:15 15.13640 -14.03274 34879 ft 429 kts 193°
2026-04-22 23:16 15.07721 -14.04361 34880 ft 430 kts 193°
2026-04-22 23:16 15.01782 -14.05452 34882 ft 430 kts 193°
2026-04-22 23:17 14.95858 -14.06539 34880 ft 430 kts 193°
2026-04-22 23:17 14.89881 -14.07633 34879 ft 431 kts 193°
2026-04-22 23:18 14.83898 -14.08731 34880 ft 430 kts 193°
2026-04-22 23:18 14.77974 -14.09816 34878 ft 430 kts 193°
2026-04-22 23:19 14.72073 -14.10896 34880 ft 430 kts 193°
2026-04-22 23:19 14.66148 -14.11982 34881 ft 430 kts 193°
2026-04-22 23:20 14.60243 -14.13062 34884 ft 431 kts 193°
2026-04-22 23:20 14.54294 -14.14148 34889 ft 430 kts 193°
2026-04-22 23:21 14.48375 -14.15229 34893 ft 431 kts 193°
2026-04-22 23:21 14.42424 -14.16317 34891 ft 431 kts 192°
2026-04-22 23:22 14.36450 -14.17406 34890 ft 431 kts 192°
2026-04-22 23:22 14.30517 -14.18488 34889 ft 431 kts 192°
2026-04-22 23:23 14.24607 -14.19565 34889 ft 431 kts 192°
2026-04-22 23:23 14.18649 -14.20651 34886 ft 431 kts 192°
2026-04-22 23:24 14.12729 -14.21730 34883 ft 431 kts 192°
2026-04-22 23:24 14.06799 -14.22809 34881 ft 432 kts 192°
2026-04-22 23:25 14.00874 -14.23886 34882 ft 432 kts 192°
2026-04-22 23:25 13.94917 -14.24969 34881 ft 431 kts 192°
2026-04-22 23:26 13.88971 -14.26048 34882 ft 431 kts 192°
2026-04-22 23:26 13.82937 -14.27145 34880 ft 432 kts 192°
2026-04-22 23:27 13.76990 -14.28224 34883 ft 432 kts 192°
2026-04-22 23:27 13.71043 -14.29304 34880 ft 432 kts 192°
2026-04-22 23:28 13.65113 -14.30380 34882 ft 432 kts 192°
2026-04-22 23:28 13.59143 -14.31461 34879 ft 433 kts 192°
2026-04-22 23:29 13.53190 -14.32540 34876 ft 434 kts 192°
2026-04-22 23:29 13.47234 -14.33618 34880 ft 433 kts 192°
2026-04-22 23:30 13.41277 -14.34695 34883 ft 433 kts 192°
2026-04-22 23:30 13.35282 -14.35780 34884 ft 434 kts 192°
2026-04-22 23:31 13.29328 -14.36856 34883 ft 435 kts 191°
2026-04-22 23:31 13.23334 -14.37940 34878 ft 435 kts 191°
2026-04-22 23:32 13.17341 -14.39021 34883 ft 435 kts 191°
2026-04-22 23:32 13.11365 -14.40100 34884 ft 435 kts 191°
2026-04-22 23:33 13.05361 -14.41184 34887 ft 435 kts 191°
2026-04-22 23:33 12.99370 -14.42264 34889 ft 435 kts 191°
2026-04-22 23:34 12.93401 -14.43339 34890 ft 436 kts 191°
2026-04-22 23:34 12.87339 -14.44431 34894 ft 436 kts 191°
2026-04-22 23:35 12.81313 -14.45516 34893 ft 435 kts 191°
2026-04-22 23:35 12.75564 -14.47476 34887 ft 434 kts 211°
2026-04-22 23:36 12.73156 -14.49331 34888 ft 435 kts 223°
2026-04-22 23:36 12.71166 -14.51680 34897 ft 436 kts 232°
2026-04-22 23:36 12.67622 -14.56743 34894 ft 436 kts 233°
2026-04-22 23:37 12.64111 -14.61800 34740 ft 435 kts 233°
2026-04-22 23:37 12.62332 -14.64351 34026 ft 439 kts 233°
2026-04-22 23:37 12.60526 -14.66938 32918 ft 446 kts 233°
2026-04-22 23:38 12.58809 -14.69570 31682 ft 453 kts 238°
2026-04-22 23:38 12.57203 -14.72351 30264 ft 461 kts 242°
2026-04-22 23:38 12.55955 -14.75343 28821 ft 464 kts 255°
2026-04-22 23:38 12.55339 -14.78583 27438 ft 465 kts 266°
2026-04-22 23:39 12.55144 -14.81881 26073 ft 468 kts 269°
2026-04-22 23:39 12.55071 -14.85205 24708 ft 470 kts 271°
2026-04-22 23:39 12.55417 -14.88520 23454 ft 467 kts 283°
2026-04-22 23:39 12.56220 -14.91653 22952 ft 449 kts 287°
2026-04-22 23:40 12.57107 -14.94702 22535 ft 431 kts 287°
2026-04-22 23:40 12.57967 -14.97585 22131 ft 416 kts 287°
2026-04-22 23:40 12.58819 -15.00421 21743 ft 412 kts 287°
2026-04-22 23:40 12.59662 -15.03206 21340 ft 410 kts 287°
2026-04-22 23:41 12.60508 -15.05988 20656 ft 404 kts 287°
2026-04-22 23:41 12.61320 -15.08689 19970 ft 397 kts 284°
2026-04-22 23:41 12.61600 -15.11470 18933 ft 396 kts 264°
2026-04-22 23:41 12.60805 -15.14148 17619 ft 399 kts 241°
2026-04-22 23:42 12.59105 -15.16388 16522 ft 394 kts 224°
2026-04-22 23:42 12.57009 -15.18129 15518 ft 388 kts 218°
2026-04-22 23:42 12.54875 -15.19826 14477 ft 383 kts 218°
2026-04-22 23:42 12.52820 -15.21485 13817 ft 368 kts 218°
2026-04-22 23:43 12.50843 -15.23103 13255 ft 352 kts 218°
2026-04-22 23:43 12.48982 -15.24640 12752 ft 338 kts 218°
2026-04-22 23:43 12.47175 -15.26143 12267 ft 325 kts 218°
2026-04-22 23:43 12.45427 -15.27600 11666 ft 318 kts 218°
2026-04-22 23:44 12.43743 -15.29011 11061 ft 312 kts 218°
2026-04-22 23:44 12.42051 -15.30429 10513 ft 308 kts 217°
2026-04-22 23:44 12.40399 -15.31813 10045 ft 303 kts 217°
2026-04-22 23:44 12.38791 -15.33161 9537 ft 300 kts 217°
2026-04-22 23:45 12.37169 -15.34519 9002 ft 299 kts 217°
2026-04-22 23:45 12.35557 -15.35866 8446 ft 298 kts 217°
2026-04-22 23:45 12.33946 -15.37214 7902 ft 297 kts 217°
2026-04-22 23:45 12.32347 -15.38551 7361 ft 296 kts 218°
2026-04-22 23:46 12.30750 -15.39889 6820 ft 295 kts 218°
2026-04-22 23:46 12.29141 -15.41236 6283 ft 294 kts 218°
2026-04-22 23:46 12.27556 -15.42562 5745 ft 292 kts 219°
2026-04-22 23:46 12.25990 -15.43874 5249 ft 290 kts 219°
2026-04-22 23:47 12.24426 -15.45184 4751 ft 288 kts 220°
2026-04-22 23:47 12.22858 -15.46497 4320 ft 288 kts 220°
2026-04-22 23:47 12.21290 -15.47810 3933 ft 287 kts 221°
2026-04-22 23:47 12.19750 -15.49099 3585 ft 285 kts 221°
2026-04-22 23:48 12.18234 -15.50370 3505 ft 269 kts 221°
2026-04-22 23:48 12.16821 -15.51552 3474 ft 255 kts 221°
2026-04-22 23:48 12.15467 -15.52685 3384 ft 244 kts 222°
2026-04-22 23:48 12.14164 -15.53778 3234 ft 239 kts 222°
2026-04-22 23:49 12.12889 -15.54846 3150 ft 230 kts 223°
2026-04-22 23:49 12.11684 -15.55856 2990 ft 219 kts 222°
2026-04-22 23:49 12.10524 -15.56826 2717 ft 213 kts 223°
2026-04-22 23:49 12.09376 -15.57780 2363 ft 210 kts 223°
2026-04-22 23:50 12.08187 -15.58659 2076 ft 207 kts 216°
2026-04-22 23:50 12.06925 -15.59310 1979 ft 192 kts 208°
2026-04-22 23:50 12.05734 -15.59779 1948 ft 178 kts 204°
2026-04-22 23:50 12.04470 -15.60229 2031 ft 200 kts 202°
2026-04-22 23:51 12.03137 -15.60686 2007 ft 201 kts 201°
2026-04-22 23:51 12.01788 -15.61142 1992 ft 202 kts 202°
2026-04-22 23:51 12.00456 -15.61597 1981 ft 202 kts 203°
2026-04-22 23:51 11.99149 -15.62043 1745 ft 189 kts 203°
2026-04-22 23:52 11.97949 -15.62452 1503 ft 172 kts 204°
2026-04-22 23:52 11.96862 -15.62825 1285 ft 158 kts 204°
2026-04-22 23:52 11.95822 -15.63189 1083 ft 153 kts 204°
2026-04-22 23:52 11.94821 -15.63546 853 ft 151 kts 204°
2026-04-22 23:53 11.93835 -15.63898 671 ft 150 kts 200°
2026-04-22 23:53 11.92833 -15.64224 550 ft 150 kts 201°
2026-04-22 23:53 11.91843 -15.64575 390 ft 145 kts 200°
2026-04-22 23:53 11.90896 -15.64888 137 ft 142 kts 200°
2026-04-22 23:54 11.89986 -15.65200 115 ft 134 kts 200°
2026-04-22 23:54 11.89075 -15.65518 613 ft 138 kts 202°
2026-04-22 23:54 11.88150 -15.65848 1096 ft 147 kts 204°
2026-04-22 23:54 11.87295 -15.66401 1606 ft 149 kts 234°
2026-04-22 23:55 11.86639 -15.67264 1948 ft 164 kts 242°
2026-04-22 23:55 11.85952 -15.68323 2004 ft 190 kts 243°
2026-04-22 23:55 11.85211 -15.69504 1962 ft 206 kts 243°
2026-04-22 23:55 11.84414 -15.70795 1960 ft 215 kts 243°
2026-04-22 23:56 11.83623 -15.72089 1978 ft 215 kts 243°
2026-04-22 23:56 11.82831 -15.73394 1974 ft 216 kts 243°
2026-04-22 23:56 11.81826 -15.74552 1952 ft 223 kts 217°
2026-04-22 23:56 11.80328 -15.75006 1959 ft 229 kts 181°
2026-04-22 23:57 11.78866 -15.74508 1947 ft 214 kts 141°
2026-04-22 23:57 11.77997 -15.73322 2002 ft 217 kts 107°
2026-04-22 23:57 11.77916 -15.71811 2002 ft 213 kts 72°
2026-04-22 23:57 11.78416 -15.70398 2007 ft 210 kts 63°
2026-04-22 23:58 11.79113 -15.69130 1945 ft 193 kts 39°
2026-04-22 23:58 11.80186 -15.68479 1836 ft 172 kts 18°
2026-04-22 23:58 11.81276 -15.68126 1492 ft 157 kts 11°
2026-04-22 23:58 11.82302 -15.67814 1285 ft 149 kts 14°
2026-04-22 23:59 11.83269 -15.67477 1076 ft 147 kts 13°
2026-04-22 23:59 11.84250 -15.67161 877 ft 146 kts 14°
2026-04-22 23:59 11.85225 -15.66820 744 ft 146 kts 15°
2026-04-22 23:59 11.86194 -15.66489 609 ft 146 kts 17°
2026-04-23 00:00 11.88127 -15.65827 181 ft 144 kts 16°
2026-04-23 00:00 11.88988 -15.65537 127 ft 97 kts 16°
2026-04-23 00:00 11.89422 -15.65390 110 ft 53 kts 18°
2026-04-23 00:01 11.89720 -15.65290 102 ft 43 kts 17°
2026-04-23 00:01 11.89992 -15.65196 101 ft 33 kts 17°
2026-04-23 00:01 11.90131 -15.65130 103 ft 10 kts 43°
2026-04-23 00:01 11.90146 -15.65137 104 ft 0 kts 194°
2026-04-23 00:02 11.90122 -15.65145 103 ft 8 kts 200°
2026-04-23 00:02 11.90025 -15.65181 102 ft 17 kts 200°
2026-04-23 00:02 11.89905 -15.65224 101 ft 19 kts 198°
2026-04-23 00:02 11.89759 -15.65275 101 ft 24 kts 200°
2026-04-23 00:03 11.89603 -15.65326 104 ft 21 kts 196°
2026-04-23 00:03 11.89471 -15.65373 108 ft 18 kts 198°
2026-04-23 00:03 11.89358 -15.65410 112 ft 16 kts 199°
2026-04-23 00:03 11.89252 -15.65448 116 ft 17 kts 199°
2026-04-23 00:04 11.89141 -15.65486 121 ft 15 kts 197°
2026-04-23 00:04 11.89041 -15.65520 124 ft 14 kts 198°
2026-04-23 00:04 11.88950 -15.65550 128 ft 13 kts 195°
2026-04-23 00:04 11.88874 -15.65538 130 ft 11 kts 130°
2026-04-23 00:05 11.88875 -15.65459 128 ft 13 kts 37°
2026-04-23 00:05 11.88935 -15.65378 124 ft 17 kts 99°
2026-04-23 00:05 11.88910 -15.65282 122 ft 12 kts 104°
2026-04-23 00:05 11.88892 -15.65231 122 ft 4 kts 110°
2026-04-23 00:06 11.88890 -15.65223 122 ft 0 kts 110°
2026-04-23 00:06 11.88889 -15.65223 122 ft 0 kts 110°